Погода в Дануне

Великобритания     55°57′17″N   4°55′37″W
темп.,
°C
ветер,
м/с
пор.,
м/с
влажн.,
%
обл.,
%
осадки,
мм/ч
давл.,
гПа
погр.,
м
15 апреля, чт
чт1501:00+3всв11855 0.0 103511
04:00+1всв11905 0.0 103513
07:00+1всв118915 0.0 103513
10:00+8юв12635 0.0 1035507
13:00+10ююв235313 0.0 10341416
16:00+11ю345024 0.0 10321431
19:00+8ю246542 0.0 1032419
22:00+3ююв11874 0.0 103311
16 апреля, пт
пт1601:00+2в11885 0.0 103210
04:000в118934 0.0 103210
07:00+1в118599 0.0 103111
10:00+6ю2562100 0.0 1031586
13:00+9ю4557100 0.0 10301043
16:00+9ю4551100 0.0 10291033
19:00+7ю2465100 0.0 1029410
22:00+3юв11925 0.0 103015
17 апреля, сб
сб1701:00+2вюв11945 0.0 102910
04:00+1в1194100 0.0 102911
07:00+2в119091 0.0 102834
10:00+7ююв3867100 0.0 1028838
13:00+9ю5860100 0.0 10261247
16:00+9ю5961100 0.0 10241212
19:00+7ююв41072100 0.0 10241085
22:00+5ююв4982100 0.3 1024896
18 апреля, вс
вс1801:00+5юв3996100 1.6 1022969
04:00+5ююв4997100 2.1 1020812
07:00+5ююв3998100 3.3 1019796
10:00+6ю2798100 0.5 1019664
13:00+7ю2598100 0.8 1019516
16:00+7ююв2499100 0.3 1018399
19:00+7юв2599100 0.6 1018466
22:00+6вюв1599100 0.4 1018385
19 апреля, пн
пн1901:00+6вюв2599100 1.1 1017391
04:00+6юв2899100 1.3 1015648
07:00+7юв3999100 5.5 1014672
10:00+7ююв41098100 2.6 1013775
13:00+7ююв41098100 6.4 1013763
16:00+7ююв3999100 4.9 1011652
19:00+7ю2499100 9.4 1011263
22:00+7сз1199100 2.2 101195